Hourly Weather Roundup
Issued by NWS Central Illinois

Home | Current Version | Previous Version | Text Only | Print | Product List | Glossary On
Versions: 1 2 3 4 5 6 7 8 9 10 11 12 13 14 15 16 17 18 19 20 21 22 23 24 25 26 27 28 29 30 31 32 33 34 35 36 37 38 39 40 41 42 43 44 45 46 47 48 49 50
000
NZUS43 KILX 110710
HWRILX

AREA WEATHER ROUNDUP
NATIONAL WEATHER SERVICE, LINCOLN IL
100 AM CST THU FEB 11 2016


CITY           SKY/WX    TMP DP  RH WIND       PRES   REMARKS
BLOOMINGTON    CLEAR     12   5  73 N6        30.17S WCI   3
CHAMPAIGN      CLOUDY    13   6  74 N5        30.16S WCI   5
DANVILLE       CLOUDY    12   6  77 NW5       30.14S WCI   4
DECATUR        CLOUDY    18   7  62 N7        30.17S WCI   9
EFFINGHAM      CLOUDY    22  18  85 W3        30.20S
FLORA          CLOUDY    22  19  85 CALM      30.19S
GALESBURG      CLOUDY    14   7  74 N7        30.20R WCI   3
JACKSONVILLE   CLOUDY    22  18  84 CALM      30.19R
LACON          MOCLDY    11   4  74 CALM      30.20S
LAWRENCEVILLE  CLOUDY    20  15  81 NW5       30.20R WCI  13
LITCHFIELD     CLOUDY    19  16  86 CALM      30.17S
$$


CITY           SKY/WX    TMP DP  RH WIND       PRES   REMARKS
LINCOLN        CLOUDY    19  10  68 N5        30.19S WCI  12
MACOMB         CLOUDY    17   8  67 N10       30.22R WCI   5
MATTOON        CLOUDY    18  12  77 N8        30.16S WCI   8
MT CARMEL AP   CLOUDY    23  18  80 CALM      30.19S
OLNEY-NOBLE AP CLOUDY    21  19  93 CALM      30.20S
PARIS          CLOUDY    15  10  82 CALM      30.19R
PEORIA         CLOUDY    14   3  61 N3        30.20R
PONTIAC        CLOUDY    15   6  67 N5        30.19S WCI   7
RANTOUL        CLOUDY    15   8  73 N3        30.16S
ROBINSON       CLOUDY    19  14  81 CALM      30.20S
SPRINGFIELD    CLOUDY    21  14  74 N9        30.18S WCI  11
TAYLORVILLE    CLOUDY    21  14  73 N3        30.19R
$$

...REGIONAL REPORTS...


CITY           SKY/WX    TMP DP  RH WIND       PRES   REMARKS
CHICAGO O`HARE CLOUDY    12   0  58 NW10      30.17R WCI  -1
KANKAKEE       CLOUDY    14   2  60 NW8       30.18S WCI   2
MOLINE         CLEAR     12   2  64 N3        30.22R
MOUNT STERLING CLOUDY    18  14  84 N6        30.19R WCI  10
MOUNT VERNON   CLOUDY    21  16  79 NE5       30.17S WCI  15
PITTSFIELD     CLOUDY    20  17  88 NE5       30.19R WCI  14
QUINCY         CLOUDY    19  13  77 N9        30.18S WCI   8
ROCKFORD       MOCLDY    10   1  67 NW5       30.21R WCI   2
$$


CITY           SKY/WX    TMP DP  RH WIND       PRES   REMARKS
BURLINGTON     CLOUDY    16   6  65 N9        30.21R WCI   4
CEDAR RAPIDS   CLOUDY     8   2  76 N7        30.22R WCI  -3
DES MOINES     CLOUDY    14   5  67 NE9       30.22F WCI   2
KIRKSVILLE     CLOUDY    20  16  84 NE6       30.18R WCI  12
OTTUMWA        CLOUDY    16   6  65 N12       30.21R WCI   3
ST LOUIS       CLOUDY    24  18  77 NE7       30.16S WCI  16
$$


CITY           SKY/WX    TMP DP  RH WIND       PRES   REMARKS
TERRE HAUTE    CLOUDY    16  10  77 CALM      30.18R
EVANSVILLE     CLOUDY    24  17  74 N6        30.19F WCI  17
INDIANAPOLIS   CLOUDY    12   6  77 W5        30.14R WCI   4
LAFAYETTE      CLOUDY    10   7  87 W3        30.17R
MADISON        CLEAR      6  -4  63 NW6       30.19R WCI  -4
MILWAUKEE      PTCLDY     8  -3  61 NW9       30.18R WCI  -5
$$





USA.gov is the U.S. government's official web portal to all federal, state and local government web resources and services.